Regional Weather Roundup
Issued by NWS

Home | Current Version | Previous Version | Graphics & Text | Print | Product List | Glossary On
Versions: 1 2 3 4 5 6 7 8 9 10 11 12 13 14 15 16 17 18 19 20 21 22 23 24 25 26 27 28 29 30 31 32 33 34 35 36 37 38 39 40 41 42 43 44 45 46 47 48 49 50
000
ASUS45 KSLC 170210
RWRUT

UTAH REGIONAL WEATHER ROUNDUP
NATIONAL WEATHER SERVICE SALT LAKE CITY UT
800 PM MDT TUE SEP 16 2014

UTZ001>011-023>025-170300-

NORTHERN UTAH

CITY           SKY/WX    TMP DP  RH WIND       PRES   REMARKS
HILL AFB       CLEAR     79  43  27 E9        30.01S
LOGAN          CLEAR     75  52  44 E3        29.98S
OGDEN          CLEAR     81  46  29 SE3       29.97F
PROVO AIRPORT  CLEAR     75  52  43 CALM      30.01R
SALT LAKE CITY PTCLDY    83  39  21 CALM      29.95S
VERNAL         MOCLDY    75  40  28 N9        30.10R
WENDOVER       PTCLDY    82  37  20 E5        29.93S
HEBER CITY     CLEAR     66  43  42 CALM      30.09R
WEST JORDAN    CLEAR     79  41  25 SW8       30.00S

$$

UTZ012>022-026-027-170300-

SOUTHERN UTAH

CITY           SKY/WX    TMP DP  RH WIND       PRES   REMARKS
BRYCE CANYON   PTCLDY    59  45  59 S6        30.28R
CEDAR CITY     PTCLDY    77  42  28 SW3       30.08R
MILFORD        CLEAR     79  39  23 S6        30.01S
MOAB/CYNLANDS  CLEAR     81  37  20 N3        30.00S
PRICE          CLEAR     78  35  21 SE8       30.12R
ST GEORGE      CLEAR     91  48  22 SW8       29.87R
KANAB            N/A     79  37  22 NE6       30.07R

$$

REGIONAL REPORTS     COLORADO/ARIZONA

CITY           SKY/WX    TMP DP  RH WIND       PRES   REMARKS
CRAIG, CO      CLEAR     61  42  49 CALM      30.17R
GRAND JUNCTION CLEAR     73  47  39 CALM      30.06R
RIFLE          CLEAR     69  45  41 SE6       30.12R
MONTROSE       CLEAR     71  45  39 CALM      30.15R
CORTEZ         CLEAR     66  51  58 S5        30.16S
PAGE, AZ       PTCLDY    83  42  23 SE5       30.01R
GRAND CANYON   CLOUDY    67  53  61 NE9       30.23R
KINGMAN        CLOUDY    73  59  61 SE17      30.03R
FLAGSTAFF      CLOUDY    61  57  87 CALM      30.25R

$$

REGIONAL REPORTS    NEVADA/IDAHO/WYOMING

CITY           SKY/WX    TMP DP  RH WIND       PRES   REMARKS
LAS VEGAS, NV  MOCLDY    96  54  24 S12       29.78R HX  94
ELY            CLEAR     72  37  28 S7        30.11F
ELKO           CLEAR     81  33  17 W6        29.98R
POCATELLO, ID  PTCLDY    76  37  24 S9        29.97S
BURLEY         CLEAR     73  50  44 CALM      29.92S
EVANSTON, WY   CLEAR     69  36  29 W8        30.22R
ROCK SPRINGS   MOCLDY    70  36  28 W9        30.21R

$$



USA.gov is the U.S. government's official web portal to all federal, state and local government web resources and services.